Chickasha, OK

7:22 PM CDT on May 26, 2017 (GMT -0500)
Chickasha Municipal

Weather History for KCHK - January, 2013

Change the Weather History Date:

Saturday, January 5, 2013

  Actual Average Record
Temperature  
Mean Temperature 40 °F -  
Max Temperature 50 °F 47 °F 71 °F (1956)
Min Temperature 30 °F 25 °F -3 °F (1959)
Degree Days  
Heating Degree Days 25    
Moisture  
Dew Point 32 °F    
Average Humidity 77    
Maximum Humidity 93    
Minimum Humidity 50    
Precipitation  
Precipitation 0.00 in - - ()
Sea Level Pressure  
Sea Level Pressure 30.24 in    
Wind  
Wind Speed 8 mph (SSW)    
Max Wind Speed 16 mph    
Max Gust Speed 21 mph    
Visibility 10 miles    
Events      
Averages and records for this station are not official NWS values.
T = Trace of Precipitation, MM = Missing Value Source: NWS Daily Summary

Daily Weather History Graph

Daily Weather History Graph

Search for Another Location

Airport or City:

Trip Planner

Search our weather history database for the weather conditions in past years. The results will help you decide how hot, cold, wet, or windy it might be!

Date:

Astronomy

Jan. 05, 2013 Rise Set
Actual Time 7:40 AM CST 5:34 PM CST
Civil Twilight 7:12 AM CST 6:02 PM CST
Nautical Twilight 6:41 AM CST 6:33 PM CST
Astronomical Twilight 6:10 AM CST 7:04 PM CST
Moon 12:56 AM CST (1/5) 12:18 PM CST (1/5)
Length of Visible Light 10h 49m
Length of Day
9h 53m
Last Quarter, 44% of the Moon is Illuminated
Jan 5
Last Quarter
Jan 11
New
Jan 18
First Quarter
Jan 26
Full
Feb 3
Last Quarter

Hourly Weather History & Observations

Time (CST) Temp. Windchill Dew Point Humidity Pressure Visibility Wind Dir Wind Speed Gust Speed Precip Events Conditions
12:15 AM 39.2 °F 32.5 °F 32.0 °F 75% 30.29 in 10.0 mi SSW 10.4 mph - N/A   Overcast
12:35 AM 37.4 °F 30.3 °F 32.0 °F 81% 30.28 in 10.0 mi South 10.4 mph - N/A   Overcast
12:55 AM 37.4 °F 30.3 °F 32.0 °F 81% 30.28 in 10.0 mi South 10.4 mph - N/A   Overcast
1:15 AM 37.4 °F 30.8 °F 32.0 °F 81% 30.27 in 10.0 mi SSW 9.2 mph - N/A   Overcast
1:35 AM 37.4 °F 30.3 °F 32.0 °F 81% 30.27 in 10.0 mi SSW 10.4 mph - N/A   Overcast
1:55 AM 37.4 °F 32.1 °F 32.0 °F 81% 30.27 in 10.0 mi SSW 6.9 mph - N/A   Overcast
2:15 AM 37.4 °F 32.1 °F 32.0 °F 81% 30.27 in 10.0 mi SSW 6.9 mph - N/A   Overcast
2:35 AM 37.4 °F 31.4 °F 32.0 °F 81% 30.27 in 10.0 mi SSW 8.1 mph - N/A   Overcast
2:55 AM 37.4 °F 31.4 °F 33.8 °F 87% 30.26 in 10.0 mi SSW 8.1 mph - N/A   Overcast
3:15 AM 37.4 °F 31.4 °F 33.8 °F 87% 30.26 in 10.0 mi SSW 8.1 mph - N/A   Overcast
3:35 AM 37.4 °F 31.4 °F 33.8 °F 87% 30.25 in 10.0 mi North 8.1 mph - N/A   Overcast
3:55 AM 37.4 °F 31.4 °F 33.8 °F 87% 30.24 in 10.0 mi South 8.1 mph - N/A   Overcast
4:15 AM 37.4 °F 31.4 °F 33.8 °F 87% 30.24 in 10.0 mi SSW 8.1 mph - N/A   Overcast
4:35 AM 37.4 °F 32.1 °F 33.8 °F 87% 30.24 in 10.0 mi SSW 6.9 mph - N/A   Overcast
4:55 AM 37.4 °F 32.1 °F 33.8 °F 87% 30.24 in 10.0 mi SSW 6.9 mph - N/A   Overcast
5:15 AM 35.6 °F 30.7 °F 33.8 °F 93% 30.24 in 10.0 mi SSW 5.8 mph - N/A   Overcast
5:55 AM 35.6 °F 29.2 °F 33.8 °F 93% 30.23 in 10.0 mi SSW 8.1 mph - N/A   Overcast
6:15 AM 35.6 °F 29.9 °F 33.8 °F 93% 30.24 in 10.0 mi SSW 6.9 mph - N/A   Overcast
6:35 AM 35.6 °F 29.9 °F 33.8 °F 93% 30.23 in 10.0 mi SSW 6.9 mph - N/A   Overcast
6:55 AM 35.6 °F 29.2 °F 33.8 °F 93% 30.24 in 10.0 mi SSW 8.1 mph - N/A   Overcast
7:35 AM 35.6 °F 29.2 °F 33.8 °F 93% 30.25 in 10.0 mi SSW 8.1 mph - N/A   Overcast
7:55 AM 35.6 °F 29.9 °F 33.8 °F 93% 30.25 in 10.0 mi South 6.9 mph - N/A   Overcast
8:15 AM 35.6 °F 29.9 °F 33.8 °F 93% 30.25 in 10.0 mi SSW 6.9 mph - N/A   Overcast
8:35 AM 35.6 °F 29.9 °F 33.8 °F 93% 30.25 in 10.0 mi South 6.9 mph - N/A   Overcast
8:55 AM 35.6 °F 29.2 °F 33.8 °F 93% 30.25 in 10.0 mi SSW 8.1 mph - N/A   Overcast
9:15 AM 35.6 °F 29.2 °F 33.8 °F 93% 30.25 in 10.0 mi SSW 8.1 mph - N/A   Overcast
9:55 AM 39.2 °F 33.0 °F 33.8 °F 81% 30.23 in 10.0 mi SSW 9.2 mph - N/A   Scattered Clouds
10:15 AM 41.0 °F 33.9 °F 33.8 °F 76% 30.24 in 10.0 mi SW 12.7 mph 20.7 mph N/A   Clear
10:55 AM 41.0 °F 33.5 °F 33.8 °F 76% 30.23 in 10.0 mi SSW 13.8 mph 18.4 mph N/A   Mostly Cloudy
11:15 AM 41.0 °F 32.8 °F 33.8 °F 76% 30.22 in 10.0 mi SW 16.1 mph 20.7 mph N/A   Mostly Cloudy
11:35 AM 44.6 °F 37.4 °F 35.6 °F 71% 30.21 in 10.0 mi SW 16.1 mph - N/A   Mostly Cloudy
11:55 AM 46.4 °F 40.7 °F 35.6 °F 66% 30.20 in 10.0 mi SW 12.7 mph 18.4 mph N/A   Scattered Clouds
12:15 PM 46.4 °F 41.5 °F 33.8 °F 62% 30.20 in 10.0 mi SW 10.4 mph 17.3 mph N/A   Scattered Clouds
12:35 PM 46.4 °F 41.5 °F 33.8 °F 62% 30.19 in 10.0 mi WSW 10.4 mph 19.6 mph N/A   Scattered Clouds
12:55 PM 48.2 °F - 35.6 °F 62% 30.20 in 10.0 mi West 13.8 mph 18.4 mph N/A   Clear
1:15 PM 48.2 °F - 35.6 °F 62% 30.19 in 10.0 mi WSW 12.7 mph 16.1 mph N/A   Clear
1:35 PM 48.2 °F - 33.8 °F 58% 30.18 in 10.0 mi WSW 11.5 mph 16.1 mph N/A   Clear
1:55 PM 48.2 °F - 33.8 °F 58% 30.17 in 10.0 mi SW 9.2 mph 18.4 mph N/A   Clear
2:15 PM 48.2 °F - 32.0 °F 54% 30.16 in 10.0 mi West 6.9 mph - N/A   Clear
2:35 PM 50.0 °F - 33.8 °F 54% 30.16 in 10.0 mi SW 10.4 mph - N/A   Clear
2:55 PM 50.0 °F - 32.0 °F 50% 30.16 in 10.0 mi WSW 11.5 mph - N/A   Clear
3:15 PM 50.0 °F - 32.0 °F 50% 30.17 in 10.0 mi WSW 6.9 mph - N/A   Clear
3:35 PM 50.0 °F - 32.0 °F 50% 30.17 in 10.0 mi West 8.1 mph - N/A   Clear
3:55 PM 50.0 °F - 32.0 °F 50% 30.18 in 10.0 mi ENE 6.9 mph - N/A   Clear
4:15 PM 50.0 °F - 32.0 °F 50% 30.18 in 10.0 mi West 6.9 mph - N/A   Clear
4:55 PM 48.2 °F - 32.0 °F 54% 30.19 in 10.0 mi East 8.1 mph - N/A   Clear
5:15 PM 48.2 °F - 33.8 °F 58% 30.20 in 10.0 mi East 5.8 mph - N/A   Clear
5:35 PM 44.6 °F 43.1 °F 32.0 °F 61% 30.21 in 10.0 mi East 3.5 mph - N/A   Clear
5:55 PM 41.0 °F 38.0 °F 32.0 °F 70% 30.21 in 10.0 mi NE 4.6 mph - N/A   Clear
6:15 PM 41.0 °F - 32.0 °F 70% 30.22 in 10.0 mi Calm Calm - N/A   Clear
6:35 PM 41.0 °F - 32.0 °F 70% 30.22 in 10.0 mi Calm Calm - N/A   Clear
6:55 PM 37.4 °F 34.9 °F 32.0 °F 81% 30.23 in 10.0 mi NE 3.5 mph - N/A   Clear
7:15 PM 37.4 °F - 30.2 °F 75% 30.24 in 10.0 mi Calm Calm - N/A   Clear
7:35 PM 37.4 °F - 30.2 °F 75% 30.24 in 10.0 mi Calm Calm - N/A   Clear
7:55 PM 35.6 °F 32.8 °F 30.2 °F 81% 30.25 in 10.0 mi East 3.5 mph - N/A   Clear
8:15 PM 33.8 °F 29.6 °F 32.0 °F 93% 30.25 in 10.0 mi ENE 4.6 mph - N/A   Clear
8:35 PM 33.8 °F 28.6 °F 30.2 °F 87% 30.26 in 10.0 mi NE 5.8 mph - N/A   Clear
8:55 PM 32.0 °F 27.5 °F 30.2 °F 93% 30.27 in 10.0 mi NNE 4.6 mph - N/A   Clear
9:15 PM 32.0 °F 27.5 °F 28.4 °F 87% 30.27 in 10.0 mi NNE 4.6 mph - N/A   Clear
9:35 PM 32.0 °F 28.7 °F 28.4 °F 87% 30.28 in 10.0 mi NE 3.5 mph - N/A   Clear
9:55 PM 32.0 °F - 28.4 °F 87% 30.29 in 10.0 mi Calm Calm - N/A   Clear
10:15 PM 32.0 °F 28.7 °F 28.4 °F 87% 30.30 in 10.0 mi ENE 3.5 mph - N/A   Clear
10:35 PM 30.2 °F 25.4 °F 26.6 °F 86% 30.31 in 10.0 mi West 4.6 mph - N/A   Clear
10:55 PM 30.2 °F 26.7 °F 26.6 °F 86% 30.31 in 10.0 mi East 3.5 mph - N/A   Clear
11:15 PM 30.2 °F 25.4 °F 26.6 °F 86% 30.31 in 10.0 mi ENE 4.6 mph - N/A   Clear
11:35 PM 30.2 °F 26.7 °F 26.6 °F 86% 30.32 in 10.0 mi East 3.5 mph - N/A   Clear